START_TIME,STEP,MOV.,M34,t_acc.,L5,t_acc.,L18,t_acc.,L14,t_acc.
1979-07-17 18:00:24.680 ,0,1,0.,12.0,0.,12.0,0.,12.0,0.,12.0
1979-07-17 18:00:36.680 ,0,1,0.,12.0,0.,12.0,0.,12.0,0.,12.0
1979-07-17 18:00:48.680 ,3,1,0.,12.0,0.,12.0,0.,12.0,0.,12.0
1979-07-17 18:01:00.680 ,3,1,0.,12.0,0.,12.0,0.,12.0,0.,12.0
1979-07-17 18:01:12.680 ,7,1,0.,12.0,0.,12.0,0.,12.0,0.,12.0
1979-07-17 18:01:24.680 ,7,1,0.,12.0,0.,12.0,0.,12.0,0.,12.0
1979-07-17 18:01:36.680 ,4,1,0.,12.0,0.,12.0,0.,12.0,0.,12.0
1979-07-17 18:01:48.680 ,4,1,0.,12.0,0.,12.0,0.,12.0,0.,12.0
1979-07-17 18:02:00.680 ,0,1,0.,12.0,0.,12.0,0.,12.0,0.,12.0
1979-07-17 18:02:12.680 ,0,1,0.,12.0,0.,12.0,0.,12.0,0.,12.0
1979-07-17 18:02:24.680 ,3,1,0.,12.0,0.,12.0,0.,12.0,0.,12.0
1979-07-17 18:02:36.680 ,3,1,1.,12.0,0.,12.0,0.,12.0,0.,12.0
1979-07-17 18:02:48.680 ,7,1,0.,12.0,0.,12.0,0.,12.0,0.,12.0
1979-07-17 18:03:00.680 ,7,1,0.,12.0,0.,12.0,0.,12.0,0.,12.0
1979-07-17 18:03:12.680 ,4,1,0.,12.0,0.,12.0,0.,12.0,0.,12.0
1979-07-17 18:03:24.680 ,4,1,0.,12.0,0.,12.0,0.,12.0,0.,12.0
1979-07-17 18:03:36.680 ,0,1,0.,12.0,0.,12.0,0.,12.0,0.,12.0
1979-07-17 18:03:48.680 ,0,1,0.,12.0,0.,12.0,0.,12.0,0.,12.0
1979-07-17 18:04:00.680 ,3,1,0.,12.0,0.,12.0,0.,12.0,0.,12.0
1979-07-17 18:04:12.680 ,3,1,0.,12.0,0.,12.0,0.,12.0,0.,12.0
1979-07-17 18:04:24.680 ,7,1,,0,,0,,0,,0
1979-07-17 18:04:36.680 ,7,1,0.,12.0,0.,12.0,0.,12.0,0.,12.0
1979-07-17 18:04:48.680 ,0,0,0.,12.0,0.,12.0,0.,12.0,0.,12.0
1979-07-17 18:05:00.680 ,0,0,0.,12.0,0.,12.0,0.,12.0,0.,12.0
1979-07-17 18:05:12.680 ,0,0,0.,12.0,0.,12.0,0.,12.0,0.,12.0
1979-07-17 18:05:24.680 ,0,0,0.,12.0,0.,12.0,0.,12.0,0.,12.0
1979-07-17 18:05:36.680 ,0,0,0.,12.0,0.,12.0,0.,12.0,0.,12.0
1979-07-17 18:05:48.680 ,0,0,0.,12.0,0.,12.0,0.,12.0,0.,12.0
1979-07-17 18:06:00.680 ,0,0,0.,12.0,0.,12.0,0.,12.0,0.,12.0
1979-07-17 18:06:12.680 ,0,0,0.,12.0,0.,12.0,0.,12.0,0.,12.0
1979-07-17 18:06:24.680 ,5,1,0.,12.0,0.,12.0,0.,12.0,0.,12.0
1979-07-17 18:06:36.680 ,5,1,0.,12.0,0.,12.0,0.,12.0,0.,12.0
1979-07-17 18:06:48.680 ,5,0,0.,12.0,0.,12.0,0.,12.0,0.,12.0
1979-07-17 18:07:00.680 ,5,0,0.,12.0,0.,12.0,0.,12.0,0.,12.0
1979-07-17 18:07:12.680 ,4,1,0.,12.0,0.,12.0,0.,12.0,0.,12.0
1979-07-17 18:07:24.680 ,4,1,0.,12.0,0.,12.0,0.,12.0,0.,12.0
1979-07-17 18:07:36.680 ,4,0,0.,12.0,0.,12.0,0.,12.0,0.,12.0
1979-07-17 18:07:48.680 ,4,0,0.,12.0,0.,12.0,0.,12.0,0.,12.0
1979-07-17 18:08:00.680 ,3,1,0.,12.0,0.,12.0,0.,12.0,0.,12.0
1979-07-17 18:08:12.680 ,3,1,0.,12.0,0.,12.0,0.,12.0,0.,12.0
1979-07-17 18:08:24.680 ,3,0,0.,12.0,0.,12.0,0.,12.0,0.,12.0
1979-07-17 18:08:36.680 ,3,0,0.,12.0,0.,12.0,0.,12.0,0.,12.0
1979-07-17 18:08:48.680 ,2,1,0.,12.0,0.,12.0,0.,12.0,0.,12.0
1979-07-17 18:09:00.680 ,2,1,0.,12.0,0.,12.0,0.,12.0,0.,12.0
1979-07-17 18:09:12.680 ,2,0,0.,12.0,0.,12.0,0.,12.0,0.,12.0
1979-07-17 18:09:24.680 ,2,0,0.,12.0,0.,12.0,0.,12.0,0.,12.0
1979-07-17 18:09:36.680 ,1,1,0.,12.0,0.,12.0,0.,12.0,0.,12.0
1979-07-17 18:09:48.680 ,1,1,1.,12.0,0.,12.0,0.,12.0,0.,12.0
1979-07-17 18:10:00.680 ,1,0,0.,12.0,0.,12.0,0.,12.0,0.,12.0
1979-07-17 18:10:12.680 ,1,0,0.,12.0,0.,12.0,0.,12.0,0.,12.0
1979-07-17 18:10:24.680 ,0,1,0.,12.0,0.,12.0,0.,12.0,0.,12.0
1979-07-17 18:10:36.680 ,0,1,0.,12.0,0.,12.0,0.,12.0,0.,12.0
1979-07-17 18:10:48.680 ,0,0,0.,12.0,0.,12.0,0.,12.0,0.,12.0
1979-07-17 18:11:00.680 ,0,0,0.,12.0,0.,12.0,0.,12.0,0.,12.0
1979-07-17 18:11:12.680 ,0,1,0.,12.0,0.,12.0,0.,12.0,0.,12.0
1979-07-17 18:11:24.680 ,0,1,0.,12.0,0.,12.0,0.,12.0,0.,12.0
1979-07-17 18:11:36.680 ,0,0,0.,12.0,0.,12.0,0.,12.0,0.,12.0
1979-07-17 18:11:48.680 ,0,0,0.,12.0,0.,12.0,0.,12.0,0.,12.0
1979-07-17 18:12:00.680 ,1,1,1.,12.0,0.,12.0,0.,12.0,0.,12.0
1979-07-17 18:12:12.680 ,1,1,0.,12.0,0.,12.0,0.,12.0,0.,12.0
1979-07-17 18:12:24.680 ,1,0,0.,12.0,0.,12.0,0.,12.0,0.,12.0
1979-07-17 18:12:36.680 ,1,0,0.,12.0,0.,12.0,0.,12.0,0.,12.0
1979-07-17 18:12:48.680 ,2,1,0.,12.0,0.,12.0,0.,12.0,0.,12.0
1979-07-17 18:13:00.680 ,2,1,0.,12.0,0.,12.0,0.,12.0,0.,12.0
1979-07-17 18:13:12.680 ,2,0,0.,12.0,0.,12.0,0.,12.0,0.,12.0
1979-07-17 18:13:24.680 ,2,0,0.,12.0,0.,12.0,0.,12.0,0.,12.0
1979-07-17 18:13:36.680 ,3,1,0.,12.0,0.,12.0,0.,12.0,0.,12.0
1979-07-17 18:13:48.680 ,3,1,0.,12.0,0.,12.0,0.,12.0,0.,12.0
1979-07-17 18:14:00.680 ,3,0,0.,12.0,0.,12.0,0.,12.0,0.,12.0
1979-07-17 18:14:12.680 ,3,0,0.,12.0,0.,12.0,0.,12.0,0.,12.0
1979-07-17 18:14:24.680 ,4,1,0.,12.0,0.,12.0,0.,12.0,0.,12.0
1979-07-17 18:14:36.680 ,4,1,0.,12.0,0.,12.0,0.,12.0,0.,12.0
1979-07-17 18:14:48.680 ,4,0,0.,12.0,0.,12.0,0.,12.0,0.,12.0
1979-07-17 18:15:00.680 ,4,0,0.,12.0,0.,12.0,0.,12.0,0.,12.0
1979-07-17 18:15:12.680 ,5,1,0.,12.0,0.,12.0,0.,12.0,0.,12.0
1979-07-17 18:15:24.680 ,5,1,0.,12.0,0.,12.0,0.,12.0,0.,12.0
1979-07-17 18:15:36.680 ,5,0,0.,12.0,0.,12.0,0.,12.0,0.,12.0
1979-07-17 18:15:48.680 ,5,0,0.,12.0,0.,12.0,0.,12.0,0.,12.0
1979-07-17 18:16:00.680 ,6,1,0.,12.0,0.,12.0,0.,12.0,0.,12.0
1979-07-17 18:16:12.680 ,6,1,0.,12.0,0.,12.0,0.,12.0,0.,12.0
1979-07-17 18:16:24.680 ,6,0,0.,12.0,0.,12.0,0.,12.0,0.,12.0
1979-07-17 18:16:36.680 ,6,0,0.,12.0,0.,12.0,0.,12.0,0.,12.0
1979-07-17 18:16:48.680 ,7,1,0.,12.0,0.,12.0,0.,12.0,0.,12.0
1979-07-17 18:17:00.680 ,7,1,0.,12.0,0.,12.0,0.,12.0,0.,12.0
1979-07-17 18:17:12.680 ,7,0,0.,12.0,0.,12.0,0.,12.0,0.,12.0
1979-07-17 18:17:24.680 ,7,0,0.,12.0,0.,12.0,0.,12.0,0.,12.0
1979-07-17 18:17:36.680 ,7,1,0.,12.0,0.,12.0,0.,12.0,0.,12.0
1979-07-17 18:17:48.680 ,7,1,0.,12.0,0.,12.0,0.,12.0,0.,12.0
1979-07-17 18:18:00.680 ,7,0,0.,12.0,0.,12.0,0.,12.0,0.,12.0
1979-07-17 18:18:12.680 ,7,0,0.,12.0,0.,12.0,0.,12.0,0.,12.0
1979-07-17 18:18:24.680 ,6,1,0.,12.0,0.,12.0,0.,12.0,0.,12.0
1979-07-17 18:18:36.680 ,6,1,0.,12.0,0.,12.0,0.,12.0,0.,12.0
1979-07-17 18:18:48.680 ,6,0,0.,12.0,0.,12.0,0.,12.0,0.,12.0
1979-07-17 18:19:00.680 ,6,0,0.,12.0,0.,12.0,0.,12.0,0.,12.0
1979-07-17 18:19:12.680 ,5,1,0.,12.0,0.,12.0,0.,12.0,0.,12.0
1979-07-17 18:19:24.680 ,5,1,0.,12.0,0.,12.0,0.,12.0,0.,12.0
1979-07-17 18:19:36.680 ,5,0,0.,12.0,0.,12.0,0.,12.0,0.,12.0
1979-07-17 18:19:48.680 ,5,0,0.,12.0,0.,12.0,0.,12.0,0.,12.0
1979-07-17 18:20:00.680 ,4,1,0.,12.0,0.,12.0,0.,12.0,0.,12.0
1979-07-17 18:20:12.680 ,4,1,0.,12.0,0.,12.0,0.,12.0,0.,12.0
1979-07-17 18:20:24.680 ,4,0,0.,12.0,0.,12.0,0.,12.0,0.,12.0
1979-07-17 18:20:36.680 ,4,0,1.,12.0,0.,12.0,0.,12.0,0.,12.0
1979-07-17 18:20:48.680 ,3,1,0.,12.0,0.,12.0,0.,12.0,0.,12.0
1979-07-17 18:21:00.680 ,3,1,0.,12.0,0.,12.0,0.,12.0,0.,12.0
1979-07-17 18:21:12.680 ,3,0,0.,12.0,0.,12.0,0.,12.0,0.,12.0
1979-07-17 18:21:24.680 ,3,0,0.,12.0,0.,12.0,0.,12.0,0.,12.0
1979-07-17 18:21:36.680 ,2,1,0.,12.0,0.,12.0,0.,12.0,0.,12.0
1979-07-17 18:21:48.680 ,2,1,0.,12.0,0.,12.0,0.,12.0,0.,12.0
1979-07-17 18:22:00.680 ,2,0,0.,12.0,0.,12.0,0.,12.0,0.,12.0
1979-07-17 18:22:12.680 ,2,0,0.,12.0,0.,12.0,0.,12.0,0.,12.0
1979-07-17 18:22:24.680 ,1,1,0.,12.0,0.,12.0,0.,12.0,0.,12.0
1979-07-17 18:22:36.680 ,1,1,0.,12.0,0.,12.0,0.,12.0,0.,12.0
1979-07-17 18:22:48.680 ,1,0,0.,12.0,0.,12.0,0.,12.0,0.,12.0
1979-07-17 18:23:00.680 ,1,0,0.,12.0,0.,12.0,0.,12.0,0.,12.0
1979-07-17 18:23:12.680 ,0,1,0.,12.0,0.,12.0,0.,12.0,0.,12.0
1979-07-17 18:23:24.680 ,0,1,0.,12.0,0.,12.0,0.,12.0,0.,12.0
1979-07-17 18:23:36.680 ,0,0,0.,12.0,0.,12.0,0.,12.0,0.,12.0
1979-07-17 18:23:48.680 ,0,0,0.,12.0,0.,12.0,0.,12.0,0.,12.0
1979-07-17 18:24:00.680 ,0,1,0.,12.0,0.,12.0,0.,12.0,0.,12.0
1979-07-17 18:24:12.680 ,0,1,0.,12.0,0.,12.0,0.,12.0,0.,12.0
1979-07-17 18:24:24.680 ,0,0,0.,12.0,0.,12.0,0.,12.0,0.,12.0
1979-07-17 18:24:36.680 ,0,0,0.,12.0,0.,12.0,0.,12.0,0.,12.0
1979-07-17 18:24:48.680 ,1,1,0.,12.0,0.,12.0,0.,12.0,0.,12.0
1979-07-17 18:25:00.680 ,1,1,0.,12.0,0.,12.0,0.,12.0,0.,12.0
1979-07-17 18:25:12.680 ,1,0,0.,12.0,0.,12.0,0.,12.0,0.,12.0
1979-07-17 18:25:24.680 ,1,0,0.,12.0,0.,12.0,0.,12.0,0.,12.0
1979-07-17 18:25:36.680 ,2,1,0.,12.0,0.,12.0,0.,12.0,0.,12.0
1979-07-17 18:25:48.680 ,2,1,0.,12.0,0.,12.0,0.,12.0,0.,12.0
1979-07-17 18:26:00.680 ,2,0,0.,12.0,0.,12.0,0.,12.0,0.,12.0
1979-07-17 18:26:12.680 ,2,0,0.,12.0,0.,12.0,0.,12.0,0.,12.0
1979-07-17 18:26:24.680 ,3,1,0.,12.0,0.,12.0,0.,12.0,0.,12.0
1979-07-17 18:26:36.680 ,3,1,0.,12.0,0.,12.0,0.,12.0,0.,12.0
1979-07-17 18:26:48.680 ,3,0,0.,12.0,0.,12.0,0.,12.0,0.,12.0
1979-07-17 18:27:00.680 ,3,0,0.,12.0,0.,12.0,0.,12.0,0.,12.0
1979-07-17 18:27:12.680 ,4,1,0.,12.0,0.,12.0,0.,12.0,0.,12.0
1979-07-17 18:27:24.680 ,4,1,0.,12.0,0.,12.0,0.,12.0,0.,12.0
1979-07-17 18:27:36.680 ,4,0,0.,12.0,0.,12.0,0.,12.0,0.,12.0
1979-07-17 18:27:48.680 ,4,0,0.,12.0,0.,12.0,0.,12.0,0.,12.0
1979-07-17 18:28:00.680 ,5,1,0.,12.0,0.,12.0,0.,12.0,0.,12.0
1979-07-17 18:28:12.680 ,5,1,0.,12.0,0.,12.0,0.,12.0,0.,12.0
1979-07-17 18:28:24.680 ,5,0,0.,12.0,0.,12.0,0.,12.0,0.,12.0
1979-07-17 18:28:36.680 ,5,0,0.,12.0,0.,12.0,0.,12.0,0.,12.0
1979-07-17 18:28:48.680 ,6,1,0.,12.0,0.,12.0,0.,12.0,0.,12.0
1979-07-17 18:29:00.680 ,6,1,0.,12.0,0.,12.0,0.,12.0,0.,12.0
1979-07-17 18:29:12.680 ,6,0,0.,12.0,0.,12.0,0.,12.0,0.,12.0
1979-07-17 18:29:24.680 ,6,0,0.,12.0,0.,12.0,0.,12.0,0.,12.0
1979-07-17 18:29:36.680 ,7,1,0.,12.0,0.,12.0,0.,12.0,0.,12.0
1979-07-17 18:29:48.680 ,7,1,0.,12.0,0.,12.0,0.,12.0,0.,12.0
1979-07-17 18:30:00.680 ,7,0,0.,12.0,0.,12.0,0.,12.0,0.,12.0
1979-07-17 18:30:12.680 ,7,0,0.,12.0,0.,12.0,0.,12.0,0.,12.0
1979-07-17 18:30:24.680 ,7,1,0.,12.0,0.,12.0,0.,12.0,0.,12.0
1979-07-17 18:30:36.680 ,7,1,0.,12.0,0.,12.0,0.,12.0,0.,12.0
1979-07-17 18:30:48.680 ,7,0,0.,12.0,0.,12.0,0.,12.0,0.,12.0
1979-07-17 18:31:00.680 ,7,0,0.,12.0,0.,12.0,0.,12.0,0.,12.0
1979-07-17 18:31:12.680 ,6,1,0.,12.0,0.,12.0,0.,12.0,0.,12.0
1979-07-17 18:31:24.680 ,6,1,0.,12.0,0.,12.0,0.,12.0,0.,12.0
1979-07-17 18:31:36.680 ,6,0,0.,12.0,0.,12.0,0.,12.0,0.,12.0
1979-07-17 18:31:48.680 ,6,0,0.,12.0,0.,12.0,0.,12.0,0.,12.0
1979-07-17 18:32:00.680 ,5,1,0.,12.0,0.,12.0,0.,12.0,0.,12.0
1979-07-17 18:32:12.680 ,5,1,0.,12.0,0.,12.0,0.,12.0,0.,12.0
1979-07-17 18:32:24.680 ,5,0,0.,12.0,0.,12.0,0.,12.0,0.,12.0
1979-07-17 18:32:36.680 ,5,0,0.,12.0,0.,12.0,0.,12.0,0.,12.0
1979-07-17 18:32:48.680 ,4,1,0.,12.0,0.,12.0,0.,12.0,0.,12.0
1979-07-17 18:33:00.680 ,4,1,0.,12.0,0.,12.0,0.,12.0,0.,12.0
1979-07-17 18:33:12.680 ,4,0,0.,12.0,0.,12.0,0.,12.0,0.,12.0
1979-07-17 18:33:24.680 ,4,0,0.,12.0,0.,12.0,0.,12.0,0.,12.0
1979-07-17 18:33:36.680 ,3,1,0.,12.0,0.,12.0,0.,12.0,0.,12.0
1979-07-17 18:33:48.680 ,3,1,0.,12.0,0.,12.0,0.,12.0,0.,12.0
1979-07-17 18:34:00.680 ,3,0,0.,12.0,0.,12.0,0.,12.0,0.,12.0
1979-07-17 18:34:12.680 ,3,0,0.,12.0,0.,12.0,0.,12.0,0.,12.0
1979-07-17 18:34:24.680 ,2,1,0.,12.0,0.,12.0,0.,12.0,0.,12.0
1979-07-17 18:34:36.680 ,2,1,0.,12.0,0.,12.0,0.,12.0,0.,12.0
1979-07-17 18:34:48.680 ,2,0,0.,12.0,0.,12.0,0.,12.0,0.,12.0
1979-07-17 18:35:00.680 ,2,0,1.,12.0,0.,12.0,0.,12.0,0.,12.0
1979-07-17 18:35:12.680 ,1,1,0.,12.0,0.,12.0,0.,12.0,0.,12.0
1979-07-17 18:35:24.680 ,1,1,0.,12.0,0.,12.0,0.,12.0,0.,12.0
1979-07-17 18:35:36.680 ,1,0,0.,12.0,0.,12.0,0.,12.0,0.,12.0
1979-07-17 18:35:48.680 ,1,0,0.,12.0,0.,12.0,0.,12.0,0.,12.0
1979-07-17 18:36:00.680 ,0,1,0.,12.0,0.,12.0,0.,12.0,0.,12.0
1979-07-17 18:36:12.680 ,0,1,0.,12.0,0.,12.0,0.,12.0,0.,12.0
1979-07-17 18:36:24.680 ,0,0,0.,12.0,0.,12.0,0.,12.0,0.,12.0
1979-07-17 18:36:36.680 ,0,0,0.,12.0,0.,12.0,0.,12.0,0.,12.0
1979-07-17 18:36:48.680 ,0,1,0.,12.0,0.,12.0,0.,12.0,0.,12.0
1979-07-17 18:37:00.680 ,0,1,0.,12.0,0.,12.0,0.,12.0,0.,12.0
1979-07-17 18:37:12.680 ,0,0,0.,12.0,0.,12.0,0.,12.0,0.,12.0
1979-07-17 18:37:24.680 ,0,0,0.,12.0,0.,12.0,0.,12.0,0.,12.0
1979-07-17 18:37:36.680 ,1,1,0.,12.0,0.,12.0,0.,12.0,0.,12.0
1979-07-17 18:37:48.680 ,1,1,0.,12.0,0.,12.0,0.,12.0,0.,12.0
1979-07-17 18:38:00.680 ,1,0,0.,12.0,0.,12.0,0.,12.0,0.,12.0
1979-07-17 18:38:12.680 ,1,0,0.,12.0,0.,12.0,0.,12.0,0.,12.0
1979-07-17 18:38:24.680 ,2,1,0.,12.0,0.,12.0,0.,12.0,0.,12.0
1979-07-17 18:38:36.680 ,2,1,0.,12.0,0.,12.0,0.,12.0,0.,12.0
1979-07-17 18:38:48.680 ,2,0,0.,12.0,0.,12.0,0.,12.0,0.,12.0
1979-07-17 18:39:00.680 ,2,0,0.,12.0,0.,12.0,0.,12.0,0.,12.0
1979-07-17 18:39:12.680 ,3,1,0.,12.0,0.,12.0,0.,12.0,0.,12.0
1979-07-17 18:39:24.680 ,3,1,0.,12.0,0.,12.0,0.,12.0,0.,12.0
1979-07-17 18:39:36.680 ,3,0,0.,12.0,0.,12.0,0.,12.0,0.,12.0
1979-07-17 18:39:48.680 ,3,0,0.,12.0,0.,12.0,0.,12.0,0.,12.0
1979-07-17 18:40:00.680 ,4,1,0.,12.0,0.,12.0,0.,12.0,0.,12.0
1979-07-17 18:40:12.680 ,4,1,0.,12.0,0.,12.0,0.,12.0,0.,12.0
1979-07-17 18:40:24.680 ,4,0,0.,12.0,0.,12.0,0.,12.0,0.,12.0
1979-07-17 18:40:36.680 ,4,0,0.,12.0,0.,12.0,0.,12.0,0.,12.0
1979-07-17 18:40:48.680 ,5,1,0.,12.0,0.,12.0,0.,12.0,0.,12.0
1979-07-17 18:41:00.680 ,5,1,0.,12.0,0.,12.0,0.,12.0,0.,12.0
1979-07-17 18:41:12.680 ,5,0,0.,12.0,0.,12.0,0.,12.0,0.,12.0
1979-07-17 18:41:24.680 ,5,0,0.,12.0,0.,12.0,0.,12.0,0.,12.0
1979-07-17 18:41:36.680 ,6,1,1.,12.0,0.,12.0,0.,12.0,0.,12.0
1979-07-17 18:41:48.680 ,6,1,0.,12.0,0.,12.0,0.,12.0,0.,12.0
1979-07-17 18:42:00.680 ,6,0,0.,12.0,0.,12.0,0.,12.0,0.,12.0
1979-07-17 18:42:12.680 ,6,0,0.,12.0,0.,12.0,0.,12.0,0.,12.0
1979-07-17 18:42:24.680 ,7,0,0.,12.0,0.,12.0,0.,12.0,0.,12.0
1979-07-17 18:42:36.680 ,7,0,0.,12.0,0.,12.0,0.,12.0,0.,12.0
1979-07-17 18:42:48.680 ,7,0,0.,12.0,0.,12.0,0.,12.0,0.,12.0
1979-07-17 18:43:00.680 ,7,0,0.,12.0,0.,12.0,0.,12.0,0.,12.0
1979-07-17 18:43:12.680 ,4,1,0.,12.0,0.,12.0,0.,12.0,0.,12.0
1979-07-17 18:43:24.680 ,4,1,0.,12.0,0.,12.0,0.,12.0,0.,12.0
1979-07-17 18:43:36.680 ,0,1,0.,12.0,0.,12.0,0.,12.0,0.,12.0
1979-07-17 18:43:48.680 ,0,1,1.,12.0,0.,12.0,0.,12.0,0.,12.0
1979-07-17 18:44:00.680 ,3,1,0.,12.0,0.,12.0,0.,12.0,0.,12.0
1979-07-17 18:44:12.680 ,3,1,0.,12.0,0.,12.0,0.,12.0,0.,12.0
1979-07-17 18:44:24.680 ,7,1,0.,12.0,0.,12.0,0.,12.0,0.,12.0
1979-07-17 18:44:36.680 ,7,1,0.,12.0,0.,12.0,0.,12.0,0.,12.0
1979-07-17 18:44:48.680 ,4,1,0.,12.0,0.,12.0,0.,12.0,0.,12.0
1979-07-17 18:45:00.680 ,4,1,0.,12.0,0.,12.0,0.,12.0,0.,12.0
1979-07-17 18:45:12.680 ,0,1,0.,12.0,0.,12.0,0.,12.0,0.,12.0
1979-07-17 18:45:24.680 ,0,1,0.,12.0,0.,12.0,0.,12.0,0.,12.0
1979-07-17 18:45:36.680 ,3,1,0.,12.0,0.,12.0,0.,12.0,0.,12.0
1979-07-17 18:45:48.680 ,3,1,0.,12.0,0.,12.0,0.,12.0,0.,12.0
1979-07-17 18:46:00.680 ,7,1,0.,12.0,0.,12.0,0.,12.0,0.,12.0
1979-07-17 18:46:12.680 ,7,1,0.,12.0,0.,12.0,0.,12.0,0.,12.0
1979-07-17 18:46:24.680 ,4,1,0.,12.0,0.,12.0,0.,12.0,0.,12.0
1979-07-17 18:46:36.680 ,4,1,0.,12.0,0.,12.0,0.,12.0,0.,12.0
1979-07-17 18:46:48.680 ,0,1,0.,12.0,0.,12.0,0.,12.0,0.,12.0
1979-07-17 18:47:00.680 ,0,1,0.,12.0,0.,12.0,0.,12.0,0.,12.0
1979-07-17 18:47:12.680 ,3,1,0.,12.0,0.,12.0,0.,12.0,0.,12.0
1979-07-17 18:47:24.680 ,3,1,0.,12.0,0.,12.0,0.,12.0,0.,12.0
1979-07-17 18:47:36.680 ,7,1,0.,12.0,0.,12.0,0.,12.0,0.,12.0
1979-07-17 18:47:48.680 ,7,1,0.,12.0,0.,12.0,0.,12.0,0.,12.0
1979-07-17 18:48:00.680 ,4,1,0.,12.0,0.,12.0,0.,12.0,0.,12.0
1979-07-17 18:48:12.680 ,4,1,0.,12.0,0.,12.0,0.,12.0,0.,12.0
1979-07-17 18:48:24.680 ,0,1,0.,12.0,0.,12.0,0.,12.0,0.,12.0
1979-07-17 18:48:36.680 ,0,1,0.,12.0,0.,12.0,0.,12.0,0.,12.0
1979-07-17 18:48:48.680 ,3,1,0.,12.0,0.,12.0,0.,12.0,0.,12.0
1979-07-17 18:49:00.680 ,3,1,0.,12.0,0.,12.0,0.,12.0,0.,12.0
1979-07-17 18:49:12.680 ,7,1,0.,12.0,0.,12.0,0.,12.0,0.,12.0
1979-07-17 18:49:24.680 ,7,1,0.,12.0,0.,12.0,0.,12.0,0.,12.0
1979-07-17 18:49:36.680 ,4,1,0.,12.0,0.,12.0,0.,12.0,0.,12.0
1979-07-17 18:49:48.680 ,4,1,0.,12.0,0.,12.0,0.,12.0,0.,12.0
1979-07-17 18:50:00.680 ,0,1,0.,12.0,0.,12.0,0.,12.0,0.,12.0
1979-07-17 18:50:12.680 ,0,1,0.,12.0,0.,12.0,0.,12.0,0.,12.0
1979-07-17 18:50:24.680 ,3,1,0.,12.0,0.,12.0,0.,12.0,0.,12.0
1979-07-17 18:50:36.680 ,3,1,0.,12.0,0.,12.0,0.,12.0,0.,12.0
1979-07-17 18:50:48.680 ,7,1,0.,12.0,0.,12.0,0.,12.0,0.,12.0
1979-07-17 18:51:00.680 ,7,1,0.,12.0,0.,12.0,0.,12.0,0.,12.0
1979-07-17 18:51:12.680 ,4,1,0.,12.0,0.,12.0,0.,12.0,0.,12.0
1979-07-17 18:51:24.680 ,4,1,0.,12.0,0.,12.0,0.,12.0,0.,12.0
1979-07-17 18:51:36.680 ,0,1,0.,12.0,0.,12.0,0.,12.0,0.,12.0
1979-07-17 18:51:48.680 ,0,1,0.,12.0,0.,12.0,0.,12.0,0.,12.0
1979-07-17 18:52:00.680 ,3,1,0.,12.0,0.,12.0,0.,12.0,0.,12.0
1979-07-17 18:52:12.680 ,3,1,0.,12.0,0.,12.0,0.,12.0,0.,12.0
1979-07-17 18:52:24.680 ,7,1,0.,12.0,0.,12.0,0.,12.0,0.,12.0
1979-07-17 18:52:36.680 ,7,1,0.,12.0,0.,12.0,0.,12.0,0.,12.0
1979-07-17 18:52:48.680 ,4,1,0.,12.0,0.,12.0,0.,12.0,0.,12.0
1979-07-17 18:53:00.680 ,4,1,0.,12.0,0.,12.0,0.,12.0,0.,12.0
1979-07-17 18:53:12.680 ,0,1,0.,12.0,0.,12.0,0.,12.0,0.,12.0
1979-07-17 18:53:24.680 ,0,1,0.,12.0,0.,12.0,0.,12.0,0.,12.0
1979-07-17 18:53:36.680 ,0,0,0.,12.0,0.,12.0,0.,12.0,0.,12.0
1979-07-17 18:53:48.680 ,0,0,0.,12.0,0.,12.0,0.,12.0,0.,12.0
1979-07-17 18:54:00.680 ,0,0,0.,12.0,0.,12.0,0.,12.0,0.,12.0
1979-07-17 18:54:12.680 ,0,0,0.,12.0,0.,12.0,0.,12.0,0.,12.0
1979-07-17 18:54:24.680 ,5,1,0.,12.0,0.,12.0,0.,12.0,0.,12.0
1979-07-17 18:54:36.680 ,5,1,0.,12.0,0.,12.0,0.,12.0,0.,12.0
1979-07-17 18:54:48.680 ,5,0,0.,12.0,0.,12.0,0.,12.0,0.,12.0
1979-07-17 18:55:00.680 ,5,0,0.,12.0,0.,12.0,0.,12.0,0.,12.0
1979-07-17 18:55:12.680 ,4,1,0.,12.0,0.,12.0,0.,12.0,0.,12.0
1979-07-17 18:55:24.680 ,4,1,0.,12.0,0.,12.0,0.,12.0,0.,12.0
1979-07-17 18:55:36.680 ,4,0,0.,12.0,0.,12.0,0.,12.0,0.,12.0
1979-07-17 18:55:48.680 ,4,0,1.,12.0,0.,12.0,0.,12.0,0.,12.0
1979-07-17 18:56:00.680 ,3,1,0.,12.0,0.,12.0,0.,12.0,0.,12.0
1979-07-17 18:56:12.680 ,3,1,0.,12.0,0.,12.0,0.,12.0,0.,12.0
1979-07-17 18:56:24.680 ,3,0,0.,12.0,0.,12.0,0.,12.0,0.,12.0
1979-07-17 18:56:36.680 ,3,0,0.,12.0,0.,12.0,0.,12.0,0.,12.0
1979-07-17 18:56:48.680 ,2,1,0.,12.0,0.,12.0,0.,12.0,0.,12.0
1979-07-17 18:57:00.680 ,2,1,0.,12.0,0.,12.0,0.,12.0,0.,12.0
1979-07-17 18:57:12.680 ,2,0,0.,12.0,0.,12.0,0.,12.0,0.,12.0
1979-07-17 18:57:24.680 ,2,0,0.,12.0,0.,12.0,0.,12.0,0.,12.0
1979-07-17 18:57:36.680 ,1,1,0.,12.0,0.,12.0,0.,12.0,0.,12.0
1979-07-17 18:57:48.680 ,1,1,0.,12.0,0.,12.0,0.,12.0,0.,12.0
1979-07-17 18:58:00.680 ,1,0,0.,12.0,0.,12.0,0.,12.0,0.,12.0
1979-07-17 18:58:12.680 ,1,0,0.,12.0,0.,12.0,0.,12.0,0.,12.0
1979-07-17 18:58:24.680 ,0,1,0.,12.0,0.,12.0,0.,12.0,0.,12.0
1979-07-17 18:58:36.680 ,0,1,0.,12.0,0.,12.0,0.,12.0,0.,12.0
1979-07-17 18:58:48.680 ,0,0,0.,12.0,0.,12.0,0.,12.0,0.,12.0
1979-07-17 18:59:00.680 ,0,0,0.,12.0,0.,12.0,0.,12.0,0.,12.0
1979-07-17 18:59:12.680 ,0,1,0.,12.0,0.,12.0,0.,12.0,0.,12.0
1979-07-17 18:59:24.680 ,0,1,1.,12.0,0.,12.0,0.,12.0,0.,12.0
1979-07-17 18:59:36.680 ,0,0,0.,12.0,0.,12.0,0.,12.0,0.,12.0
1979-07-17 18:59:48.680 ,0,0,0.,12.0,0.,12.0,0.,12.0,0.,12.0
1979-07-17 19:00:00.680 ,1,1,0.,12.0,0.,12.0,0.,12.0,0.,12.0
1979-07-17 19:00:12.680 ,1,1,0.,12.0,0.,12.0,0.,12.0,0.,12.0
1979-07-17 19:00:24.680 ,1,0,0.,12.0,0.,12.0,0.,12.0,0.,12.0
1979-07-17 19:00:36.680 ,1,0,0.,12.0,0.,12.0,0.,12.0,0.,12.0
1979-07-17 19:00:48.670 ,2,1,0.,12.0,0.,12.0,0.,12.0,0.,12.0
1979-07-17 19:01:00.680 ,2,1,0.,12.0,0.,12.0,0.,12.0,0.,12.0
1979-07-17 19:01:12.670 ,2,0,0.,12.0,0.,12.0,0.,12.0,0.,12.0
1979-07-17 19:01:24.680 ,2,0,0.,12.0,0.,12.0,0.,12.0,0.,12.0
1979-07-17 19:01:36.680 ,3,1,0.,12.0,0.,12.0,0.,12.0,0.,12.0
1979-07-17 19:01:48.680 ,3,1,0.,12.0,0.,12.0,0.,12.0,0.,12.0
1979-07-17 19:02:00.670 ,3,0,0.,12.0,0.,12.0,0.,12.0,0.,12.0
1979-07-17 19:02:12.680 ,3,0,0.,12.0,0.,12.0,0.,12.0,0.,12.0
1979-07-17 19:02:24.680 ,4,1,0.,12.0,0.,12.0,0.,12.0,0.,12.0
1979-07-17 19:02:36.680 ,4,1,0.,12.0,0.,12.0,0.,12.0,0.,12.0
1979-07-17 19:02:48.680 ,4,0,0.,12.0,0.,12.0,0.,12.0,0.,12.0
1979-07-17 19:03:00.680 ,4,0,0.,12.0,0.,12.0,0.,12.0,0.,12.0
1979-07-17 19:03:12.680 ,5,1,0.,12.0,0.,12.0,0.,12.0,0.,12.0
1979-07-17 19:03:24.680 ,5,1,0.,12.0,0.,12.0,0.,12.0,0.,12.0
1979-07-17 19:03:36.680 ,5,0,0.,12.0,0.,12.0,0.,12.0,0.,12.0
1979-07-17 19:03:48.680 ,5,0,0.,12.0,0.,12.0,0.,12.0,0.,12.0
1979-07-17 19:04:00.680 ,6,1,0.,12.0,0.,12.0,0.,12.0,0.,12.0
1979-07-17 19:04:12.680 ,6,1,0.,12.0,0.,12.0,0.,12.0,0.,12.0
1979-07-17 19:04:24.680 ,6,0,0.,12.0,0.,12.0,0.,12.0,0.,12.0
1979-07-17 19:04:36.680 ,6,0,0.,12.0,0.,12.0,0.,12.0,0.,12.0
1979-07-17 19:04:48.680 ,7,1,0.,12.0,0.,12.0,0.,12.0,0.,12.0
1979-07-17 19:05:00.680 ,7,1,0.,12.0,0.,12.0,0.,12.0,0.,12.0
1979-07-17 19:05:12.680 ,7,0,0.,12.0,0.,12.0,0.,12.0,0.,12.0
1979-07-17 19:05:24.680 ,7,0,0.,12.0,0.,12.0,0.,12.0,0.,12.0
1979-07-17 19:05:36.680 ,7,1,0.,12.0,0.,12.0,0.,12.0,0.,12.0
1979-07-17 19:05:48.680 ,7,1,0.,12.0,0.,12.0,0.,12.0,0.,12.0
1979-07-17 19:06:00.680 ,7,0,0.,12.0,0.,12.0,0.,12.0,0.,12.0
1979-07-17 19:06:12.680 ,7,0,0.,12.0,0.,12.0,0.,12.0,0.,12.0
1979-07-17 19:06:24.680 ,6,1,0.,12.0,0.,12.0,0.,12.0,0.,12.0
1979-07-17 19:06:36.680 ,6,1,0.,12.0,0.,12.0,0.,12.0,0.,12.0
1979-07-17 19:06:48.680 ,6,0,0.,12.0,0.,12.0,0.,12.0,0.,12.0
1979-07-17 19:07:00.680 ,6,0,0.,12.0,0.,12.0,0.,12.0,0.,12.0
1979-07-17 19:07:12.680 ,0,0,0.,12.0,0.,12.0,0.,12.0,0.,12.0
1979-07-17 19:07:24.680 ,0,0,1.,12.0,0.,12.0,0.,12.0,0.,12.0
1979-07-17 19:07:36.680 ,0,0,,0,,0,,0,,0
1979-07-17 19:07:48.680 ,0,0,,0,,0,,0,,0
1979-07-17 19:07:36.680 ,5,0,0.,12.0,0.,12.0,0.,12.0,0.,12.0
1979-07-17 19:07:48.680 ,5,0,0.,12.0,0.,12.0,0.,12.0,0.,12.0
1979-07-17 19:08:00.680 ,4,1,0.,12.0,0.,12.0,0.,12.0,0.,12.0
1979-07-17 19:08:12.680 ,4,1,0.,12.0,0.,12.0,0.,12.0,0.,12.0
1979-07-17 19:08:24.680 ,4,0,0.,12.0,0.,12.0,0.,12.0,0.,12.0
1979-07-17 19:08:36.670 ,4,0,1.,12.0,0.,12.0,0.,12.0,0.,12.0
1979-07-17 19:08:48.670 ,3,1,0.,12.0,0.,12.0,0.,12.0,0.,12.0
1979-07-17 19:09:00.670 ,3,1,0.,12.0,0.,12.0,0.,12.0,0.,12.0
1979-07-17 19:09:12.670 ,3,0,0.,12.0,0.,12.0,0.,12.0,0.,12.0
1979-07-17 19:09:24.670 ,3,0,0.,12.0,0.,12.0,0.,12.0,0.,12.0
1979-07-17 19:09:36.670 ,2,1,0.,12.0,0.,12.0,0.,12.0,0.,12.0
1979-07-17 19:09:48.670 ,2,1,0.,12.0,0.,12.0,0.,12.0,0.,12.0
1979-07-17 19:10:00.670 ,2,0,0.,12.0,0.,12.0,0.,12.0,0.,12.0
1979-07-17 19:10:12.670 ,2,0,0.,12.0,0.,12.0,0.,12.0,0.,12.0
1979-07-17 19:10:24.670 ,1,1,0.,12.0,0.,12.0,0.,12.0,0.,12.0
1979-07-17 19:10:36.670 ,1,1,0.,12.0,0.,12.0,0.,12.0,0.,12.0
1979-07-17 19:10:48.670 ,1,0,0.,12.0,0.,12.0,0.,12.0,0.,12.0
1979-07-17 19:11:00.670 ,1,0,0.,12.0,0.,12.0,0.,12.0,0.,12.0
1979-07-17 19:11:12.670 ,0,1,0.,12.0,0.,12.0,0.,12.0,0.,12.0
1979-07-17 19:11:24.670 ,0,1,0.,12.0,0.,12.0,0.,12.0,0.,12.0
1979-07-17 19:11:36.670 ,0,0,0.,12.0,0.,12.0,0.,12.0,0.,12.0
1979-07-17 19:11:48.670 ,0,0,0.,12.0,0.,12.0,0.,12.0,0.,12.0
1979-07-17 19:12:00.670 ,0,1,0.,12.0,0.,12.0,0.,12.0,0.,12.0
1979-07-17 19:12:12.670 ,0,1,0.,12.0,0.,12.0,0.,12.0,0.,12.0
1979-07-17 19:12:24.670 ,0,0,0.,12.0,0.,12.0,0.,12.0,0.,12.0
1979-07-17 19:12:36.670 ,0,0,0.,12.0,0.,12.0,0.,12.0,0.,12.0
1979-07-17 19:12:48.670 ,1,1,0.,12.0,0.,12.0,0.,12.0,0.,12.0
1979-07-17 19:13:00.670 ,1,1,0.,12.0,0.,12.0,0.,12.0,0.,12.0
1979-07-17 19:13:12.670 ,1,0,0.,12.0,0.,12.0,0.,12.0,0.,12.0
1979-07-17 19:13:24.670 ,1,0,0.,12.0,0.,12.0,0.,12.0,0.,12.0
1979-07-17 19:13:36.670 ,2,1,0.,12.0,0.,12.0,0.,12.0,0.,12.0
1979-07-17 19:13:48.670 ,2,1,0.,12.0,0.,12.0,0.,12.0,0.,12.0
1979-07-17 19:14:00.670 ,2,0,0.,12.0,0.,12.0,0.,12.0,0.,12.0
1979-07-17 19:14:12.670 ,2,0,0.,12.0,0.,12.0,0.,12.0,0.,12.0
1979-07-17 19:14:24.670 ,3,1,0.,12.0,0.,12.0,0.,12.0,0.,12.0
1979-07-17 19:14:36.670 ,3,1,0.,12.0,0.,12.0,0.,12.0,0.,12.0
1979-07-17 19:14:48.670 ,3,0,0.,12.0,0.,12.0,0.,12.0,0.,12.0
1979-07-17 19:15:00.670 ,3,0,1.,12.0,0.,12.0,0.,12.0,0.,12.0
1979-07-17 19:15:12.670 ,4,1,0.,12.0,0.,12.0,0.,12.0,0.,12.0
1979-07-17 19:15:24.670 ,4,1,0.,12.0,0.,12.0,0.,12.0,0.,12.0
1979-07-17 19:15:36.670 ,4,0,1.,12.0,0.,12.0,0.,12.0,0.,12.0
1979-07-17 19:15:48.670 ,4,0,0.,12.0,0.,12.0,0.,12.0,0.,12.0
1979-07-17 19:16:00.670 ,5,1,1.,12.0,0.,12.0,0.,12.0,0.,12.0
1979-07-17 19:16:12.670 ,5,1,0.,12.0,0.,12.0,0.,12.0,0.,12.0
1979-07-17 19:16:24.670 ,5,0,0.,12.0,0.,12.0,0.,12.0,0.,12.0
1979-07-17 19:16:36.670 ,5,0,0.,12.0,0.,12.0,0.,12.0,0.,12.0
1979-07-17 19:16:48.670 ,6,1,0.,12.0,0.,12.0,0.,12.0,0.,12.0
1979-07-17 19:17:00.670 ,6,1,0.,12.0,0.,12.0,0.,12.0,0.,12.0
1979-07-17 19:17:12.670 ,6,0,0.,12.0,0.,12.0,0.,12.0,0.,12.0